Content
SEND FEEDBACK

Daily
Averages
Monthly
Summary
United States of America

BAYOU LA BATRE, ALABAMA


Home > North America > United States > Alabama
Elevation: 0 feet     Latitude: 30 23N     Longitude: 088 14W

WEATHER
 
SELECT A DAY
Number of Records: 195,760;   Date Range: 8/14/97 - 7/29/14
 
SHARE

PRINT THIS DATA

[ ← Previous Day ]
WEATHER ALMANAC - JANUARY 31, 2013
[ Next Day → ]
[ °C ]   °F
Weather ElementAverageHighLow
Temperature46.4 °F60.1 °F (2:53 pm)33.1 °F (6:53 am)
Dewpoint30.5 °F37 °F (7:53 pm)23 °F (12:53 pm)
Humidity59.3 %92 % (11:53 pm)24 % (2:53 pm)
Barometer30.26 in30.34 in (11:53 pm)30.18 in (1:53 am)
Wind Speed4 mph9.2 mph (9:53 am)
Weather ElementAverage
Visibility10 mi
Wind DirectionSE (137 °)

Weather ElementTotal
Precipitation---
Heating Degree Days18.4 (Base 65)
Averaged from 23 records on January 31, 2013
WEATHER CONDITIONS BREAKOUT
WIND DIRECTION BREAKOUT
WEATHER BY HOUR - JANUARY 31, 2013
[ °C ]   °F
Local TimeTemperatureDewpointHumidityBarometerVisibilityWind DirectionWind SpeedGust SpeedPrecipitationEventsConditions
1:53 AM41.0 °F30.9 °F67 %30.18 in10.0 miNW (310°)3.5 mphClear
2:53 AM39.9 °F30.9 °F70 %30.19 in10.0 miNW (320°)5.8 mphClear
3:53 AM37.9 °F30.0 °F73 %30.19 in10.0 miWest (280°)4.6 mphClear
4:53 AM36.0 °F30.0 °F79 %30.20 in10.0 miCalmClear
5:53 AM35.1 °F30.0 °F82 %30.22 in10.0 miWNW (290°)4.6 mphClear
6:53 AM33.1 °F28.9 °F85 %30.23 in10.0 miCalmClear
7:53 AM39.9 °F32.0 °F73 %30.26 in10.0 miWest (280°)3.5 mphClear
8:53 AM46.0 °F30.9 °F56 %30.29 in10.0 miVariable5.8 mphClear
9:53 AM50.0 °F28.0 °F43 %30.30 in10.0 miNW (320°)9.2 mphClear
10:53 AM54.0 °F26.1 °F34 %30.30 in10.0 miVariable6.9 mphClear
11:53 AM57.9 °F25.0 °F28 %30.28 in10.0 miNNW (340°)9.2 mphClear
12:53 PM57.9 °F23.0 °F26 %30.25 in10.0 miVariable6.9 mphClear
1:53 PM59.0 °F23.0 °F25 %30.24 in10.0 miVariable6.9 mphClear
2:53 PM60.1 °F23.0 °F24 %30.24 in10.0 miNW (320°)8.1 mphClear
3:53 PM60.1 °F24.1 °F25 %30.24 in10.0 miVariable3.5 mphClear
4:53 PM54.0 °F35.1 °F49 %30.25 in10.0 miSW (230°)5.8 mphClear
5:53 PM50.0 °F36.0 °F59 %30.27 in10.0 miSW (230°)3.5 mphClear
6:53 PM44.1 °F35.1 °F71 %30.28 in10.0 miCalmClear
7:53 PM48.9 °F37.0 °F64 %30.29 in10.0 miSW (230°)3.5 mphClear
8:53 PM48.9 °F37.0 °F64 %30.29 in10.0 miCalmClear
9:53 PM39.9 °F37.0 °F89 %30.31 in10.0 miCalmClear
10:53 PM39.0 °F35.1 °F86 %30.33 in10.0 miCalmClear
11:53 PM35.1 °F33.1 °F92 %30.34 in10.0 miCalmClear
Hourly data recorded from KPQL, located miles away from Bayou La Batre, Alabama







STORIES FROM OUR PARTNERS